TimeCST,TemperatureF,Dew PointF,Humidity,Sea Level PressureIn,VisibilityMPH,Wind Direction,Wind SpeedMPH,Gust SpeedMPH,PrecipitationIn,Events,Conditions,WindDirDegrees,DateUTC
12:03 AM,46.4,44.6,93,29.98,2.5,SSW,3.5,-,N/A,,Mostly Cloudy,200,2012-12-07 06:03:00
12:19 AM,46.4,44.6,93,29.97,2.5,Calm,Calm,-,N/A,,Mostly Cloudy,0,2012-12-07 06:19:00
12:31 AM,46.4,44.6,93,29.97,2.0,South,4.6,-,N/A,,Mostly Cloudy,170,2012-12-07 06:31:00
12:53 AM,48.0,45.0,89,29.97,2.5,SSE,3.5,-,N/A,,Overcast,150,2012-12-07 06:53:00
1:51 AM,48.2,46.4,93,29.96,2.0,SSE,3.5,-,N/A,,Overcast,150,2012-12-07 07:51:00
1:53 AM,48.0,46.0,93,29.97,2.0,SSE,3.5,-,N/A,,Overcast,160,2012-12-07 07:53:00
2:03 AM,48.2,46.4,93,29.96,1.8,Calm,Calm,-,N/A,,Overcast,0,2012-12-07 08:03:00
2:53 AM,48.9,46.0,90,29.95,1.8,Calm,Calm,-,N/A,,Overcast,0,2012-12-07 08:53:00
3:23 AM,48.2,46.4,93,29.95,0.2,Calm,Calm,-,N/A,Fog,Fog,0,2012-12-07 09:23:00
3:53 AM,48.0,46.9,96,29.95,0.2,SSE,3.5,-,N/A,Fog,Fog,150,2012-12-07 09:53:00
4:53 AM,48.0,46.0,93,29.94,0.2,ESE,4.6,-,N/A,Fog,Fog,120,2012-12-07 10:53:00
5:53 AM,48.9,46.9,93,29.95,0.2,Calm,Calm,-,N/A,Fog,Fog,0,2012-12-07 11:53:00
6:53 AM,48.9,46.9,93,29.95,0.2,NE,4.6,-,N/A,Fog,Fog,40,2012-12-07 12:53:00
7:53 AM,48.9,48.0,97,29.94,0.2,ENE,6.9,-,0.03,Fog-Rain,Light Rain,60,2012-12-07 13:53:00
8:04 AM,48.2,48.2,100,29.94,0.5,NE,6.9,-,0.00,Fog-Rain,Light Rain,50,2012-12-07 14:04:00
8:31 AM,48.2,48.2,100,29.93,1.0,ENE,6.9,-,0.01,,Overcast,60,2012-12-07 14:31:00
8:38 AM,48.2,48.2,100,29.93,1.0,ENE,5.8,-,0.01,,Overcast,60,2012-12-07 14:38:00
8:53 AM,50.0,48.0,93,29.94,1.2,ENE,4.6,-,0.01,Rain,Light Rain,60,2012-12-07 14:53:00
9:04 AM,50.0,48.2,94,29.94,1.0,ENE,3.5,-,0.00,Rain,Light Rain,70,2012-12-07 15:04:00
9:11 AM,50.0,48.2,94,29.94,0.8,Calm,Calm,-,0.01,Rain,Light Rain,0,2012-12-07 15:11:00
9:24 AM,50.0,48.2,94,29.94,0.8,ENE,3.5,-,0.02,Rain,Light Rain,60,2012-12-07 15:24:00
9:35 AM,50.0,48.2,94,29.93,0.8,ENE,3.5,-,0.03,Rain,Light Rain,60,2012-12-07 15:35:00
9:42 AM,50.0,48.2,94,29.93,1.0,NE,4.6,-,0.03,Rain,Light Rain,50,2012-12-07 15:42:00
9:53 AM,50.0,48.9,96,29.93,1.2,ENE,6.9,-,0.04,Rain,Light Rain,60,2012-12-07 15:53:00
10:36 AM,51.8,48.2,88,29.92,1.2,East,4.6,-,0.00,Rain,Light Rain,80,2012-12-07 16:36:00
10:41 AM,51.8,48.2,88,29.92,1.2,ENE,3.5,-,0.00,Rain,Light Rain,70,2012-12-07 16:41:00
10:53 AM,51.1,50.0,96,29.91,1.0,NE,4.6,-,0.01,Rain,Light Rain,50,2012-12-07 16:53:00
11:32 AM,53.6,51.8,94,29.87,2.0,East,8.1,-,0.00,,Overcast,90,2012-12-07 17:32:00
11:49 AM,53.6,51.8,94,29.87,3.0,East,5.8,-,0.00,,Overcast,90,2012-12-07 17:49:00
11:53 AM,54.0,51.1,90,29.87,3.0,East,5.8,-,0.00,,Overcast,90,2012-12-07 17:53:00
12:03 PM,53.6,51.8,94,29.87,3.0,East,6.9,-,N/A,,Overcast,100,2012-12-07 18:03:00
12:36 PM,53.6,51.8,94,29.84,2.5,ESE,8.1,-,N/A,,Overcast,110,2012-12-07 18:36:00
12:49 PM,53.6,51.8,94,29.84,1.2,SE,6.9,-,N/A,,Overcast,130,2012-12-07 18:49:00
12:53 PM,54.0,52.0,93,29.84,1.2,SE,6.9,-,N/A,,Overcast,130,2012-12-07 18:53:00
1:01 PM,53.6,51.8,94,29.84,1.0,ESE,4.6,-,N/A,,Overcast,120,2012-12-07 19:01:00
1:09 PM,53.6,51.8,94,29.84,0.8,SE,4.6,-,N/A,,Overcast,140,2012-12-07 19:09:00
1:53 PM,55.0,53.1,93,29.83,0.5,South,6.9,-,N/A,Fog,Fog,180,2012-12-07 19:53:00
2:53 PM,55.0,54.0,96,29.82,0.8,South,6.9,-,0.01,Rain,Light Rain,180,2012-12-07 20:53:00
3:03 PM,55.4,53.6,94,29.82,1.0,South,6.9,-,N/A,,Overcast,180,2012-12-07 21:03:00
3:13 PM,55.4,53.6,94,29.82,1.2,SSW,6.9,-,N/A,,Overcast,200,2012-12-07 21:13:00
3:53 PM,55.9,54.0,93,29.83,1.8,West,5.8,-,N/A,,Overcast,260,2012-12-07 21:53:00
4:00 PM,55.4,53.6,94,29.83,2.5,West,6.9,-,N/A,,Overcast,260,2012-12-07 22:00:00
4:07 PM,55.4,53.6,94,29.83,3.0,WSW,6.9,-,N/A,,Overcast,250,2012-12-07 22:07:00
4:17 PM,55.4,53.6,94,29.83,2.5,WSW,5.8,-,N/A,,Overcast,250,2012-12-07 22:17:00
4:33 PM,55.4,53.6,94,29.83,4.0,WSW,4.6,-,N/A,,Overcast,250,2012-12-07 22:33:00
4:53 PM,54.0,52.0,93,29.84,4.0,West,4.6,-,N/A,,Mostly Cloudy,260,2012-12-07 22:53:00
5:44 PM,50.0,48.2,94,29.84,1.8,WSW,3.5,-,N/A,,Partly Cloudy,240,2012-12-07 23:44:00
5:49 PM,48.2,48.2,100,29.84,0.5,Calm,Calm,-,N/A,Fog,Fog,0,2012-12-07 23:49:00
5:53 PM,48.9,46.9,93,29.85,0.2,Calm,Calm,-,N/A,Fog,Fog,0,2012-12-07 23:53:00
6:18 PM,50.0,48.2,94,29.85,0.2,Calm,Calm,-,N/A,Fog,Fog,0,2012-12-08 00:18:00
6:30 PM,46.4,46.4,100,29.85,0.2,SSW,3.5,-,N/A,Fog,Fog,200,2012-12-08 00:30:00
7:06 PM,48.2,46.4,93,29.86,0.2,SSW,4.6,-,N/A,Fog,Fog,210,2012-12-08 01:06:00
7:53 PM,50.0,48.0,93,29.87,0.2,Calm,Calm,-,N/A,Fog,Fog,0,2012-12-08 01:53:00
8:06 PM,50.0,48.2,94,29.87,0.2,Calm,Calm,-,N/A,Fog,Fog,0,2012-12-08 02:06:00
8:53 PM,48.9,48.0,97,29.87,0.2,Calm,Calm,-,N/A,Fog,Fog,0,2012-12-08 02:53:00
10:14 PM,48.2,48.2,100,29.87,0.2,Calm,Calm,-,N/A,Fog,Fog,0,2012-12-08 04:14:00
10:36 PM,50.0,48.2,94,29.87,0.5,Calm,Calm,-,N/A,Fog,Fog,0,2012-12-08 04:36:00
10:53 PM,48.9,48.0,97,29.87,0.5,Calm,Calm,-,N/A,Fog,Fog,0,2012-12-08 04:53:00
11:11 PM,48.2,48.2,100,29.86,0.2,Calm,Calm,-,N/A,Fog,Fog,0,2012-12-08 05:11:00
11:50 PM,48.2,48.2,100,29.87,0.2,Calm,Calm,-,N/A,Fog,Fog,0,2012-12-08 05:50:00
11:53 PM,48.9,48.0,97,29.87,0.2,Calm,Calm,-,N/A,Fog,Fog,0,2012-12-08 05:53:00